Location: *
(60.1759°S, 155.0663°W)
Time: 15:53:54
(UTC+00:00)

Meteor PRIRODA - Pass Details

Date: 17 September 2019
Orbit: 492 x 510 km, 97.5° (Epoch: 15 October)

Event Time Altitude Azimuth Distance (km) Brightness Sun altitude
Exits shadow 14:06:11 - 11° (N) 2,547 7.0 -17.3°
Reaches altitude 10° 14:08:03 10° 8° (N) 1,761 6.2 -17.1°
Maximum altitude 14:11:51 69° 284° (WNW) 569 3.6 -16.7°
Drops below altitude 10° 14:15:41 10° 200° (SSW) 1,782 6.5 -16.3°
Sets 14:17:49 0° 197° (SSW) 2,675 7.4 -16.0°
